[[{"header":{"parameterUnit":"m.s-1","parameterCategory":1,"la1":30.2991,"la2":30.254,"lo1":-89.0895,"lo2":-89.0444,"dy":0.0017,"dx":0.0017,"nx":28,"ny":28,"refTime":"2024-07-01T21:00:00:Z","depth":0,"parameterNumber":2,"parameterNumberName":"U-component_of_WINDS"},"data":[0,0,0,0,0,0,0,0,0,0,0,0,0,0,0,0,0,0,0,0,0,0,0,0,0,0,0,0,0,0,0,0,0,0,0,0,0,0,0,0,0,0,0,0,0,0,0,0,0,0,0,0,0,0,0,0,0,0,0.6424,0.6424,0,0.6452,0.6452,0.6453,0.6421,0.642,0.6419,0.6418,0.6446,0.6448,0.645,0,0,0,0,0,0,0,0,0,0,0,0,0,0.6343,0.6345,0.6424,0.6424,0.6425,0.6452,0.6452,0.6453,0.6421,0.642,0.6418,0.6417,0.6445,0.6448,0.645,0,0,0,0,0,0,0,0,0,0,0,0,0,0.6375,0.6345,0.6424,0.6412,0.6412,0.6452,0.6452,0.6453,0.6422,0.642,0.6418,0.6416,0.6445,0.6447,0.645,0.6503,0,0,0.6459,0.646,0,0,0,0,0,0,0,0,0.6374,0.6378,0.6414,0.6413,0.6412,0.6431,0.6434,0.647,0.6422,0.6418,0.6417,0.6415,0.6443,0.6445,0.6455,0.6504,0.6506,0.6459,0.6461,0.6462,0.6463,0,0,0,0,0,0,0,0.6371,0.6377,0.6435,0.6414,0.6414,0.6406,0.6408,0.6441,0.644,0.6418,0.6416,0.642,0.6442,0.6452,0.6455,0.6506,0.6459,0.6461,0.6463,0.6464,0.6601,0.6602,0,0,0,0,0,0,0.6371,0.6375,0.6434,0.6436,0.6388,0.6408,0.6411,0.6427,0.6439,0.644,0.6421,0.6418,0.6448,0.6452,0.6456,0.6518,0.6462,0.6464,0.6466,0.6599,0.6601,0.6603,0,0,0,0,0,0,0.6369,0.6376,0.6433,0.6405,0.6412,0.6412,0.643,0.6428,0.6438,0.6442,0.6441,0.6432,0.6447,0.6452,0.6491,0.6519,0.6466,0.6468,0.6596,0.6599,0.6602,0.6644,0,0,0,0,0,0,0.6367,0.6376,0.6396,0.6406,0.6413,0.6469,0.6431,0.643,0.6443,0.644,0.6451,0.6452,0.6446,0.6487,0.6494,0.6522,0.647,0.6594,0.6598,0.6601,0.664,0.6648,0.6655,0,0,0,0,0,0.6364,0.6407,0.6397,0.6404,0.6439,0.647,0.6474,0.6467,0.6446,0.6466,0.6468,0.6451,0.6515,0.6492,0.6499,0.6528,0.6592,0.6597,0.6601,0.6637,0.6646,0.6655,0,0,0,0,0,0,0.64,0.6408,0.6397,0.6444,0.6457,0.6465,0.649,0.6477,0.6496,0.6491,0.6481,0.6484,0.6526,0.6531,0.6505,0.658,0.655,0.6556,0.6575,0.6584,0.6591,0.6589,0.6473,0,0,0,0,0,0.6413,0.6438,0.6444,0.6485,0.6492,0.649,0.6503,0.6496,0.6509,0.6514,0.6519,0.6531,0.6554,0.6569,0.6591,0.6641,0.6643,0.6664,0.6671,0.6677,0.6683,0.6709,0.6719,0.6617,0.6617,0.6617,0,0,0.6441,0.6449,0.6465,0.6492,0.6501,0.6527,0.6495,0.6523,0.6543,0.6518,0.6556,0.656,0.6573,0.6618,0.6639,0.6624,0.6711,0.6683,0.6688,0.669,0.6715,0.6724,0.6733,0.662,0.662,0.6619,0,0,0.6505,0.6514,0.6549,0.6558,0.6572,0.6571,0.6579,0.6589,0.6591,0.6628,0.6611,0.6633,0.6673,0.6683,0.6693,0.6761,0.6747,0.6769,0.6806,0.6833,0.684,0.6848,0.6871,0.688,0.6774,0.6774,0.6774,0,0.6538,0.6577,0.6568,0.6598,0.6611,0.659,0.6625,0.6635,0.6655,0.6664,0.6647,0.6696,0.6704,0.6751,0.6768,0.6777,0.6786,0.6767,0.684,0.6847,0.6853,0.6876,0.6885,0.6777,0.6776,0.6776,0.6776,0,0.6616,0.6643,0.667,0.669,0.6705,0.6738,0.6734,0.6751,0.6743,0.6743,0.6782,0.679,0.6812,0.6823,0.6815,0.6869,0.6859,0.6842,0.6811,0.6866,0.6887,0.6896,0.678,0.6779,0.6779,0.6778,0,0,0.6703,0.6718,0.6728,0.6737,0.6751,0.6771,0.6803,0.6825,0.684,0.6854,0.688,0.6914,0.6898,0.691,0.6903,0.6926,0.6979,0.6905,0.6905,0.6918,0.7038,0.7051,0.7061,0.6969,0.6971,0.6972,0.7037,0,0.6767,0.6822,0.6815,0.6868,0.6893,0.6874,0.6901,0.6913,0.6914,0.6935,0.6936,0.696,0.6937,0.6944,0.6966,0.6968,0.7003,0.6963,0.6993,0.6994,0.699,0.7072,0.7086,0.7147,0.7045,0.7046,0.7047,0,0.6848,0.6866,0.6921,0.6932,0.6942,0.6967,0.6986,0.7007,0.7019,0.7019,0.7032,0.7021,0.7053,0.7022,0.7065,0.7039,0.7051,0.7054,0.7056,0.7058,0.7024,0.7076,0.7166,0.7175,0.706,0.7059,0.7058,0,0.6905,0.6943,0.6981,0.6989,0.7002,0.702,0.7027,0.7037,0.7051,0.7068,0.7077,0.7098,0.7109,0.7125,0.712,0.7098,0.7164,0.7133,0.7164,0.7164,0.7178,0.7177,0.727,0.7187,0.7187,0.7187,0.7186,0,0.6977,0.7011,0.7007,0.703,0.7068,0.706,0.7098,0.7102,0.7112,0.7135,0.712,0.7142,0.7135,0.7156,0.7153,0.7189,0.7194,0.7194,0.7193,0.7195,0.7195,0.7202,0.7198,0.7189,0.7188,0.7188,0.7188,0,0.7047,0.7045,0.7085,0.7095,0.7098,0.7125,0.7133,0.7155,0.7155,0.7185,0.7191,0.7192,0.7216,0.7213,0.7241,0.7239,0.7283,0.7277,0.7279,0.7277,0.7308,0.7305,0.7409,0.7422,0.733,0.7331,0.7332,0,0.7092,0.7118,0.7131,0.7145,0.7153,0.7177,0.7191,0.7185,0.72,0.7216,0.7236,0.7259,0.7278,0.7318,0.7321,0.7342,0.7336,0.7371,0.7339,0.734,0.7336,0.7334,0.7336,0.7377,0.7378,0.7379,0.7379,0,0.7173,0.7171,0.7192,0.7213,0.723,0.7246,0.7261,0.7274,0.7268,0.7286,0.7311,0.7326,0.7354,0.7378,0.7398,0.7404,0.7391,0.7389,0.7398,0.74,0.74,0.74,0.7296,0.7387,0.7386,0.7386,0.7385,0.7385,0.7231,0.7253,0.7266,0.729,0.73,0.7314,0.7335,0.7338,0.7359,0.7382,0.7377,0.7406,0.7417,0.7443,0.7451,0.7473,0.746,0.7472,0.7475,0.7478,0.7481,0.7397,0.7477,0.7477,0.7476,0.7476,0.7476,0,0.731,0.7317,0.734,0.7361,0.738,0.7366,0.7382,0.7398,0.7424,0.7436,0.7455,0.7484,0.7507,0.7511,0.7533,0.755,0.7544,0.7556,0.7554,0.7555,0.7492,0.7482,0.756,0.756,0.756,0.756,0.756,0.756,0.7353,0.739,0.739,0.7432,0.7439,0.7467,0.7477,0.749,0.75,0.7533,0.7552,0.7555,0.7565,0.7587,0.7607,0.7608,0.7616,0.763,0.7628,0.7568,0.756,0.7552,0.7543,0.7632,0.7632,0.769,0.769,0.7691]},{"header":{"parameterUnit":"m.s-1","parameterCategory":1,"la1":30.2991,"la2":30.254,"lo1":-89.0895,"lo2":-89.0444,"dy":0.0017,"dx":0.0017,"nx":28,"ny":28,"refTime":"2024-07-01T21:00:00:Z","depth":0,"parameterNumber":3,"parameterNumberName":"V-component_of_WINDS"},"data":[0,0,0,0,0,0,0,0,0,0,0,0,0,0,0,0,0,0,0,0,0,0,0,0,0,0,0,0,0,0,0,0,0,0,0,0,0,0,0,0,0,0,0,0,0,0,0,0,0,0,0,0,0,0,0,0,0,0,4.1075,4.1075,0,4.1104,4.1104,4.1105,4.1108,4.1108,4.1108,4.1107,4.1133,4.1134,4.1135,0,0,0,0,0,0,0,0,0,0,0,0,0,4.102,4.1021,4.1075,4.1076,4.1076,4.1104,4.1104,4.1105,4.1108,4.1108,4.1107,4.1107,4.1133,4.1134,4.1135,0,0,0,0,0,0,0,0,0,0,0,0,0,4.1046,4.1021,4.1075,4.1081,4.1082,4.1104,4.1104,4.1105,4.1108,4.1108,4.1107,4.1107,4.1133,4.1134,4.1135,4.1152,0,0,4.114,4.114,0,0,0,0,0,0,0,0,4.1044,4.1048,4.108,4.1081,4.1082,4.1102,4.1094,4.1121,4.1108,4.1098,4.1107,4.1107,4.1123,4.1125,4.1131,4.1154,4.1155,4.114,4.1141,4.1141,4.1142,0,0,0,0,0,0,0,4.1042,4.1046,4.1086,4.108,4.1081,4.1081,4.1084,4.1099,4.1112,4.1099,4.1099,4.1103,4.1123,4.113,4.1132,4.1155,4.114,4.1141,4.1142,4.1143,4.1193,4.1193,0,0,0,0,0,0,4.104,4.1045,4.1086,4.1087,4.1062,4.1083,4.1086,4.1096,4.1112,4.1114,4.1103,4.1103,4.1128,4.113,4.1133,4.1154,4.1141,4.1143,4.1143,4.1192,4.1193,4.1193,0,0,0,0,0,0,4.1039,4.1044,4.1084,4.1066,4.1071,4.1084,4.1095,4.1097,4.1103,4.1116,4.1117,4.1108,4.1128,4.1131,4.1148,4.1155,4.1143,4.1145,4.1192,4.1193,4.1193,4.1196,0,0,0,0,0,0,4.1037,4.1043,4.105,4.1066,4.1072,4.11,4.1095,4.1098,4.1106,4.1106,4.112,4.1122,4.1128,4.1146,4.1149,4.1157,4.1146,4.1191,4.1192,4.1193,4.1195,4.1197,4.1198,0,0,0,0,0,4.1035,4.1049,4.1051,4.1056,4.1082,4.11,4.1103,4.111,4.1107,4.1114,4.1122,4.1122,4.1154,4.1147,4.1151,4.1159,4.1191,4.1192,4.1193,4.1195,4.1196,4.1198,0,0,0,0,0,0,4.1032,4.1051,4.1053,4.1073,4.1085,4.1101,4.1109,4.1112,4.1124,4.1123,4.113,4.1133,4.115,4.1156,4.1149,4.1177,4.1172,4.1174,4.1172,4.1173,4.1175,4.1172,4.1147,0,0,0,0,0,4.1034,4.1048,4.1064,4.108,4.1086,4.1097,4.1105,4.1109,4.1121,4.1126,4.1135,4.1146,4.1158,4.1166,4.1179,4.1197,4.1199,4.1204,4.1205,4.1206,4.1208,4.1217,4.1219,4.1197,4.1197,4.1197,0,0,4.1037,4.105,4.1058,4.1079,4.1089,4.1103,4.1101,4.1115,4.1125,4.1128,4.1145,4.1152,4.1164,4.1182,4.119,4.1188,4.1215,4.1208,4.1208,4.1209,4.1219,4.1221,4.1223,4.1198,4.1198,4.1198,0,0,4.105,4.1062,4.1076,4.1086,4.1102,4.1109,4.1113,4.1128,4.1134,4.1151,4.1153,4.1165,4.1186,4.1195,4.1202,4.122,4.122,4.1224,4.123,4.124,4.1241,4.1243,4.1249,4.1251,4.1225,4.1225,4.1225,0,4.1052,4.1074,4.1083,4.1098,4.1107,4.1112,4.1126,4.1135,4.1153,4.1159,4.1157,4.1184,4.1193,4.1212,4.1217,4.1223,4.1226,4.1222,4.1241,4.1242,4.1244,4.1249,4.1251,4.1225,4.1225,4.1225,4.1225,0,4.1075,4.109,4.11,4.1119,4.1129,4.1144,4.1154,4.1163,4.1167,4.1174,4.1192,4.1203,4.1217,4.1222,4.1225,4.1242,4.124,4.1239,4.1234,4.1246,4.1251,4.1254,4.1226,4.1226,4.1226,4.1226,0,0,4.1086,4.1111,4.1114,4.1123,4.1141,4.1152,4.1167,4.1182,4.119,4.1202,4.1214,4.1232,4.1232,4.124,4.1244,4.1253,4.1266,4.1251,4.1251,4.1252,4.1284,4.1285,4.1287,4.1267,4.1267,4.1267,4.1283,0,4.1101,4.1128,4.1137,4.1159,4.1173,4.1178,4.1191,4.1202,4.121,4.1222,4.1229,4.1242,4.1241,4.1246,4.1254,4.1262,4.1272,4.1261,4.1276,4.1277,4.1272,4.129,4.129,4.1304,4.1285,4.1286,4.1286,0,4.1121,4.1136,4.116,4.1177,4.1183,4.1194,4.1209,4.1221,4.1234,4.1239,4.1249,4.1253,4.1267,4.1262,4.1281,4.1274,4.1281,4.1286,4.1286,4.1287,4.1281,4.129,4.1309,4.1311,4.1289,4.1289,4.1289,0,4.1126,4.1152,4.1169,4.1177,4.1197,4.1205,4.1213,4.1226,4.1235,4.1248,4.1254,4.1268,4.1275,4.1285,4.1293,4.1289,4.1311,4.1307,4.1315,4.1314,4.1318,4.1318,4.1337,4.1324,4.1324,4.1324,4.1324,0,4.1141,4.1156,4.1172,4.1183,4.1199,4.1209,4.1224,4.1232,4.1244,4.1256,4.1261,4.1272,4.1281,4.1293,4.1299,4.1313,4.1317,4.132,4.1321,4.1319,4.1319,4.1323,4.1322,4.1324,4.1324,4.1324,4.1324,0,4.1149,4.1161,4.118,4.1198,4.1203,4.1214,4.1229,4.1239,4.1247,4.1262,4.1266,4.1278,4.1292,4.1301,4.1318,4.1322,4.1339,4.134,4.1334,4.1335,4.1342,4.1341,4.1364,4.1368,4.1352,4.1353,4.1353,0,4.1158,4.1169,4.1189,4.1198,4.1207,4.1221,4.1231,4.1241,4.125,4.1267,4.1275,4.129,4.1302,4.1324,4.1334,4.1347,4.1348,4.1355,4.135,4.1348,4.1347,4.1346,4.1347,4.1356,4.1356,4.1356,4.1356,0,4.1171,4.1177,4.1191,4.1208,4.122,4.1233,4.1246,4.1253,4.1265,4.1275,4.129,4.13,4.1319,4.1333,4.1347,4.1355,4.1357,4.1358,4.136,4.1358,4.1354,4.1356,4.1336,4.1357,4.1357,4.1357,4.1357,4.1357,4.1179,4.119,4.1206,4.1222,4.1233,4.1245,4.1256,4.1266,4.1279,4.1296,4.1301,4.1317,4.133,4.135,4.1358,4.1369,4.1368,4.1371,4.1372,4.1373,4.1373,4.1353,4.1372,4.1372,4.1372,4.1372,4.1372,0,4.1193,4.1204,4.1219,4.1238,4.125,4.1253,4.1268,4.1277,4.1292,4.1304,4.1317,4.1334,4.1348,4.136,4.1374,4.1381,4.1382,4.1384,4.1383,4.1385,4.1373,4.137,4.1383,4.1383,4.1383,4.1383,4.1383,4.1383,4.1202,4.122,4.1227,4.125,4.1261,4.1277,4.1286,4.1296,4.1307,4.1326,4.1339,4.1347,4.1358,4.1374,4.1386,4.1389,4.1394,4.1395,4.1398,4.1387,4.1386,4.1384,4.1381,4.1396,4.1396,4.1409,4.1409,4.1409]}]]